Regional Weather Roundup
Issued by NWS

Home | Current Version | Previous Version | Text Only | Print | Product List | Glossary On
Versions: 1 2 3 4 5 6 7 8 9 10 11 12 13 14 15 16 17 18 19 20 21 22 23 24 25 26 27 28 29 30 31 32 33 34 35 36 37 38 39 40 41 42 43 44 45 46 47 48 49 50
000
ASUS45 KREV 291710
RWRNV
NEVADA REGIONAL WEATHER ROUNDUP
NATIONAL WEATHER SERVICE RENO NV
1000 AM PDT SUN MAY 29 2016

NOTE: "FAIR" INDICATES FEW OR NO CLOUDS BELOW 12,000 FEET WITH NO
SIGNIFICANT WEATHER AND/OR OBSTRUCTIONS TO VISIBILITY.

NVZ001-003-004-291800-
WESTERN NEVADA

CITY           SKY/WX    TMP DP  RH WIND       PRES   REMARKS
RENO           MOSUNNY   68  38  33 CALM      30.09F
CARSON CITY    FAIR      66  39  37 CALM      30.12S
MINDEN         FAIR      63  39  42 CALM      30.12S
SLIDE MTN        N/A     50  32  50 SW1         N/A
FALLON         SUNNY     71  37  28 VRB3      30.06F
LOVELOCK       SUNNY     73  36  25 CALM      30.06S
HAWTHORNE      SUNNY     70  37  30 CALM      30.09F
$$

NVZ002-CAZ072-073-291800-
NORTHERN AND CENTRAL SIERRA

CITY           SKY/WX    TMP DP  RH WIND       PRES   REMARKS
S. LAKE TAHOE  SUNNY     61  41  47 VRB3      30.16F
TRUCKEE        SUNNY     59  43  55 CALM      30.16F
SQUAW VLY 8000 NOT AVBL
SUSANVILLE     SUNNY     68  36  30 CALM      30.08F
MAMMOTH LAKES  FAIR      61  37  40 E3        30.21F
BRIDGEPORT     FAIR      60  29  30 CALM      30.16F
$$

NVZ030-031-036-291800-
NORTHERN NEVADA

CITY           SKY/WX    TMP DP  RH WIND       PRES   REMARKS
ELKO           MOSUNNY   66  43  43 CALM      30.12F
WINNEMUCCA     SUNNY     69  35  28 VRB3      30.07F
WENDOVER       SUNNY     66  39  37 SE6       30.10S
$$

NVZ035-037-291800-
CENTRAL NEVADA

CITY           SKY/WX    TMP DP  RH WIND       PRES   REMARKS
ELY            CLOUDY    64  38  38 SE3       30.16F
EUREKA           N/A     65  41  41 CALM      30.14S
$$

NVZ013-014-291800-
SOUTH CENTRAL NEVADA

CITY           SKY/WX    TMP DP  RH WIND       PRES   REMARKS
TONOPAH        SUNNY     69  35  28 SE9       30.13F
$$

NVZ017-020-022-291800-
SOUTHERN NEVADA

CITY           SKY/WX    TMP DP  RH WIND       PRES   REMARKS
LAS VEGAS      MOSUNNY   83  27  13 E6        29.92S
N. LAS VEGAS   SUNNY     82  27  13 VRB3      29.95S
NELLIS AFB     SUNNY     83  31  15 VRB5      29.94R
HENDERSON      SUNNY     82  31  15 NE6       29.98S
MERCURY        SUNNY     80  28  15 NE6       29.99F
$$



USA.gov is the U.S. government's official web portal to all federal, state and local government web resources and services.